Tracking 30743 objects as of 20-Jun-2025
HD Live streaming from Space Station
objects crossing your sky now

SES MPOWER-A F2

Track SES MPOWER-A F2 now!
10-day predictions


NORAD ID: 54756
Int'l Code: 2022-174B
Perigee: 8,064.8 km
Apogee: 8,081.2 km
Inclination: 0.0 °
Period: 287.9 minutes
Semi major axis: 14444 km
RCS: Unknown
Launch date: December 16, 2022
Source: SOCIETE EUROPEENNE DES SATELLITES (SES)
Launch site: AIR FORCE EASTERN TEST RANGE (AFETR)
Your satellite tracking list
Your tracking list is empty




NASA's NSSDC Master Catalog

Two Line Element Set (TLE):
1 54756U 22174B   25170.67436046 -.00000010  00000-0  00000-0 0  9996
2 54756   0.0492  15.9819 0005697  67.7254 276.3586  5.00116133 47306
Source of the keplerian elements: AFSPC